Regional Weather Roundup
Issued by NWS Grand Forks, ND

Home | Current Version | Previous Version | Text Only | Print | Product List | Glossary On
Versions: 1 2 3 4 5 6 7 8 9 10 11 12 13 14 15 16 17 18 19 20 21 22 23 24 25 26 27 28 29 30 31 32 33 34 35 36 37 38 39 40 41 42 43 44 45 46 47 48 49 50
000
ASUS43 KFGF 050810
RWRFGF
PRAIRIE TO PINES  WEATHER ROUNDUP
NATIONAL WEATHER SERVICE EASTERN NORTH DAKOTA/GRAND FORKS ND
200 AM CST THU MAR 05 2015

 **SATELLITE DATA USED TO AUGMENT SKY COVER AT AUTOMATED STATIONS**
 *****  WEATHER ACROSS EASTERN NORTH DAKOTA  *****

CITY           SKY/WX    TMP DP  RH WIND       PRES   REMARKS
GRAND FORKS    CLEAR    -15 -20  78 SW7       30.40R WCI -31
GRAND FRKS AFB CLEAR     -9 -17  68 SW5       30.38S WCI -21
GRAND FRKS NWS   N/A     -9 N/A N/A SW6         N/A  WCI -23
DEVILS LAKE    PTCLDY    -9 -18  64 SW5       30.30F WCI -21
FARGO          CLEAR     -8 -15  71 SW7       30.43S WCI -23
WAHPETON ARPT  SUNNY     -9 -15  77 W6        30.45F WCI -23
$$

 ***** WEATHER ACROSS CENTRAL AND WESTERN NORTH DAKOTA  *****

CITY           SKY/WX    TMP DP  RH WIND       PRES   REMARKS
BISMARCK       PTCLDY    -6 -12  75 CALM      30.32F
MINOT          PTCLDY    -5 -15  62 S12       30.22F WCI -23
JAMESTOWN      CLEAR     -9 -15  75 SW6       30.34S WCI -22
MINOT AFB      MOCLDY   -11 -17  75 S6        30.22F WCI -25
GARRISON         N/A    -11 -15  82 SE6       30.23F WCI -25
WILLISTON      CLEAR      1  -9  62 S5        30.17F WCI  -9
DICKINSON      PTCLDY     0  -7  72 S12       30.13F WCI -17
HETTINGER      CLEAR      0  -9  65 S6        30.19F WCI -12
$$

 *****  OTHER AIRPORT OBSERVATIONS IN OUR AREA  *****

CITY           SKY/WX    TMP DP  RH WIND       PRES   REMARKS
WALHALLA         N/A     -8 -17  65 W5        30.34S WCI -19
GRAFTON AIRPOR NOT AVBL
VALLEY CITY AR FAIR      -8 -13  77 S5        30.36S WCI -19
CANDO          FAIR     -17 -20  83 SW6       30.31S WCI -31
CAVALIER APRT  FAIR     -11 -17  77 SW5       30.35F WCI -23
GWINNER        SUNNY     -6 -13  71 SW8       30.42S WCI -21
SHEYENNE NWR     N/A    -13 -21  69 W3        29.95
ROLLA          FAIR      -8 -17  65 SW13      30.23F WCI -28
 ***** THE ABOVE OBSERVATIONS ARE NON NWS ARE NOT QUALITY
       CONTROLLED AND MAY MIS-REPORT RAIN FOR SNOW...
$$

  *****  WEATHER ACROSS NORTHERN MINNESOTA  *****

CITY           SKY/WX    TMP DP  RH WIND       PRES   REMARKS
FLAG ISLAND    CLEAR    -15 -20  76 S5        30.30R WCI -27
WARROAD        CLEAR    -11 -17  77 SW6       30.31S WCI -25
ROSEAU         CLEAR    -11 -18  70 SW7       30.33S WCI -26
HALLOCK        NOT AVBL
THF RVR FALLS  CLEAR    -13 -18  77 SW6       30.35R WCI -27
BAUDETTE       CLEAR    -17 -21  82 S5        30.31R WCI -30
WASKISH        CLEAR    -11 -17  77 SW6       30.33S WCI -25
CROOKSTON      CLEAR    -11 -17  77 SW8       30.41S WCI -28
$$
  *****  WEATHER ACROSS CENTRAL AND WEST MINNESOTA  *****

CITY           SKY/WX    TMP DP  RH WIND       PRES   REMARKS
FOSSTON        CLEAR    -20 -26  76 S5        30.36S WCI -33
BEMIDJI        CLEAR    -16 -21  78 SW3       30.33S
PARK RAPIDS    CLEAR    -15 -21  74 S3        30.35R
ELBOW LAKE     FAIR     -13 -18  81 SW6       30.42S WCI -28
WADENA         CLEAR    -13 -18  77 SW5       30.38R WCI -25
DETROIT LAKES  CLEAR     -9 -13  84 SW5       30.38S WCI -21
MOORHEAD       CLEAR     -8 -11  84 SW5       30.43F WCI -19
FERGUS FALLS   CLEAR    -11 -17  77 S3        30.47S
MORRIS MN      CLEAR    -11 -17  77 W6        30.43S WCI -25
STAPLES        CLEAR    -18 -24  76 CALM      30.38S
$$
  *****  WEATHER ELSEWHERE ACROSS MINNESOTA  *****

CITY           SKY/WX    TMP DP  RH WIND       PRES   REMARKS
DULUTH         CLEAR    -11 -17  75 W8        30.32R WCI -28
INTRNTL FALLS  CLEAR    -21 -27  73 CALM      30.32R
ELY            CLEAR    -18 -24  76 CALM      30.30R
CLOQUET        CLEAR    -11 -18  70 W6        30.34S WCI -25
WHEATON        CLEAR    -11 -17  77 SW6       30.48R WCI -25
BRAINERD       CLEAR    -20 -23  86 CALM      30.39S
HIBBING        CLEAR    -22 -27  77 W3        30.33R
ALEXANDRIA     PTCLDY   -15 -19  82 W7        30.39S WCI -31
SAINT CLOUD    PTCLDY    -8 -14  74 W8        30.42S WCI -24
MINNEAPOLIS    CLEAR     -4 -12  68 NW7       30.45R WCI -18
$$

  *****  WEATHER ACROSS SOUTH DAKOTA  *****

CITY           SKY/WX    TMP DP  RH WIND       PRES   REMARKS
SIOUX FALLS    CLEAR     -7 -12  79 W3        30.44S
BROOKINGS      NOT AVBL
WATERTOWN      PTCLDY   -12 -18  74 S3        30.38S
HURON          PTCLDY    -9 -14  78 S5        30.45F WCI -20
SISSETON         N/A     -7 -14  71 W6        30.43F WCI -20
ABERDEEN       PTCLDY   -15 -21  74 SW6       30.43S WCI -29
MITCHELL         N/A     -6 -10  83 CALM      30.47F
PIERRE         PTCLDY    -4  -9  79 SE9       30.37F WCI -20
MOBRIDGE       CLEAR     -2  -8  76 S8        30.31F WCI -17
RAPID CITY     CLEAR      6   0  76 S7        30.20F WCI  -6
$$

  *****  SOME WEATHER IN NEARBY STATES *****

CITY           SKY/WX    TMP DP  RH WIND       PRES   REMARKS
GLASGOW MT     CLOUDY    12   0  58 SE14      30.03F WCI  -3
GREAT FALLS MT CLEAR     26  14  60 SW14      30.04S WCI  14
CHEYENNE WY    CLEAR     16   0  49 W12       30.13R WCI   3
SCOTTSBLUFF NE CLEAR      6   0  76 E3        30.23S
OMAHA NE       CLEAR      6  -3  66 NE6       30.50R WCI  -4
DES MOINES IA  PTCLDY     7  -2  66 N8        30.47R WCI  -6
DAVENPORT IA   PTCLDY     5  -3  69 NW8       30.43R WCI  -8
CHICAGO IL     MOCLDY     8  -5  55 N12       30.35F WCI  -7
EAU CLAIRE WI  CLEAR     -6 -16  61 W3        30.41R
LA CROSSE WI   CLEAR      0 -10  63 NW6       30.45R WCI -12
$$

  *****  SOME NATIONAL WEATHER *****

CITY           SKY/WX    TMP DP  RH WIND       PRES   REMARKS
LA GUARDIA NY  LGT RAIN  37  32  81 NW10      29.92R
RALEIGH NC     LGT RAIN  65  58  78 SW15G25   29.86F
ATLANTA GA     CLOUDY    67  63  87 S14       29.88F
NEW ORLEANS LA PTCLDY    70  67  90 S9        29.92F
OKLAHOMA CITY  PTCLDY    15  10  80 NW6       30.45R WCI   6
ALBUQUERQUE NM CLEAR     27  19  72 N8        30.28R WCI  19
SALT LAKE CITY CLEAR     29  18  63 SE9       30.36R WCI  20
LOS ANGELES CA PTCLDY    56  47  71 VRB5      30.16S
BOISE ID       CLEAR     29  16  58 SE8       30.33S WCI  21
SEATTLE WA     MOCLDY    42  24  49 CALM      30.30S
$$

*** WEATHER ACROSS MANITOBA...SASKATCHEWAN AND ONTARIO ***
                ***ONTARIO***

CITY           SKY/WX    TMP DP  RH WIND       PRES   REMARKS
GERALDTON      CLEAR    -11 -18  70 W6        30.18R WCI -25
THUNDER BAY    CLEAR    -22 -27  76 W5        30.33R WCI -36
SIOUX LOOKOUT  CLEAR    -17 -22  76 SW2       30.22R
TORONTO        MOCLDY     9  -8  47 NW16G23   30.23R WCI  -9
BIG TROUT LK   PTCLDY   -13 -18  77 W8        30.04S WCI -30
PICKLE LAKE    NOT AVBL
DRYDEN         CLEAR    -13 -18  77 SW7       30.23R WCI -29
KENORA         CLEAR    -15 -18  84 SW6       30.25S WCI -29
$$
                *** MANITOBA***

CITY           SKY/WX    TMP DP  RH WIND       PRES   REMARKS
BRANDON        CLEAR    -18 -24  76 W8        30.25F WCI -37
DAUPHIN        CLEAR     -8 -17  65 SW12G17   30.22S WCI -27
ISLAND LAKE    CLEAR    -13 -20  70 SW7       30.10F WCI -29
PILOT MOUND      N/A    -18 -24  76 SW5         N/A  WCI -31
THE PAS        CLEAR    -13 -20  70 S6        30.09F WCI -27
THOMPSON       CLEAR    -18 -24  76 SW2       30.01F
WINNIPEG       CLEAR    -11 -18  70 SW10      30.32S WCI -30
LYNN LAKE      MOCLDY   -17 -22  76 SW7       29.90F WCI -33
CHURCHILL      CLEAR    -24 -29  76 W7        29.95F WCI -42
GILLAM         CLEAR    -17 -22  76 SW6       29.99F WCI -31
$$
                ***SASKATCHEWAN***

CITY           SKY/WX    TMP DP  RH WIND       PRES   REMARKS
ESTEVAN        CLEAR    -13 -20  70 S9        30.14F WCI -31
KINDERSLEY     PTCLDY     1  -4  78 S9        29.96S WCI -14
LLOYDMINSTER   MOCLDY     9   3  78 SW12      29.88F WCI  -6
PRINCE ALBERT  CLOUDY   -15 -20  76 CALM      30.02F
REGINA         PTCLDY   -13 -20  70 SE14      30.08F WCI -35
YORKTON        CLEAR    -15 -22  70 S8        30.12F WCI -32
N. BATTLEFORD  CLEAR     -6 -11  77 E7        29.99F WCI -20
LA RONGE       CLEAR     -8 -17  65 S6        29.93F WCI -21
SASKATOON      PTCLDY    -8 -15  71 S6        30.03F WCI -21
SWIFT CURRENT  CLEAR     10   1  67 SW15      29.93F WCI  -6
$$
NOTE: THESE ARE AUTOMATED STATIONS WITH LIMITED QUALITY CONTROL
      "FAIR" INDICATES FEW OR NO CLOUDS BELOW 12,000 FEET WITH NO
      SIGNIFICANT WEATHER AND/OR OBSTRUCTIONS TO VISIBILITY.
      SKY/WX - SKY CONDITION AND SIGNIFICANT WEATHER.
      TMP - AIR TEMPERATURE.    DP   - DEWPOINT TEMPERATURE.
      RH  - RELATIVE HUMIDITY.  PRES - PRESSURE.
      HX  - HEAT INDEX.         WCI  - WIND CHILL INDEX.
$


USA.gov is the U.S. government's official web portal to all federal, state and local government web resources and services.